[[{"header":{"parameterUnit":"m.s-1","parameterCategory":1,"la1":30.2991,"la2":30.254,"lo1":-89.0895,"lo2":-89.0444,"dy":0.0017,"dx":0.0017,"nx":28,"ny":28,"refTime":"2024-02-02T09:00:00:Z","depth":0,"parameterNumber":2,"parameterNumberName":"U-component_of_WINDS"},"data":[0,0,0,0,0,0,0,0,0,0,0,0,0,0,0,0,0,0,0,0,0,0,0,0,0,0,0,0,0,0,0,0,0,0,0,0,0,0,0,0,0,0,0,0,0,0,0,0,0,0,0,0,0,0,0,0,0,0,-2.2026,-2.2026,0,-2.2068,-2.2069,-2.2069,-2.2016,-2.2014,-2.2013,-2.2011,-2.2054,-2.2057,-2.206,0,0,0,0,0,0,0,0,0,0,0,0,0,-2.19,-2.1903,-2.2026,-2.2026,-2.2027,-2.2068,-2.2069,-2.2069,-2.2017,-2.2014,-2.2012,-2.201,-2.2053,-2.2056,-2.206,0,0,0,0,0,0,0,0,0,0,0,0,0,-2.195,-2.1904,-2.2026,-2.2006,-2.2004,-2.2068,-2.2069,-2.2069,-2.2017,-2.2014,-2.2011,-2.2009,-2.2052,-2.2056,-2.206,-2.2146,0,0,-2.2074,-2.2076,0,0,0,0,0,0,0,0,-2.1947,-2.1955,-2.2008,-2.2007,-2.2006,-2.2034,-2.204,-2.2095,-2.2018,-2.2012,-2.2011,-2.2007,-2.205,-2.2054,-2.2068,-2.2148,-2.215,-2.2074,-2.2077,-2.2079,-2.208,0,0,0,0,0,0,0,-2.1944,-2.1953,-2.2042,-2.2009,-2.2008,-2.1995,-2.1999,-2.205,-2.2047,-2.2013,-2.2009,-2.2015,-2.2048,-2.2064,-2.2069,-2.215,-2.2074,-2.2078,-2.2081,-2.2083,-2.2303,-2.2306,0,0,0,0,0,0,-2.1943,-2.195,-2.2041,-2.2044,-2.1969,-2.1999,-2.2004,-2.2028,-2.2046,-2.2046,-2.2017,-2.2012,-2.2058,-2.2064,-2.207,-2.2172,-2.2079,-2.2083,-2.2086,-2.23,-2.2304,-2.2307,0,0,0,0,0,0,-2.194,-2.1951,-2.2039,-2.1996,-2.2006,-2.2005,-2.2032,-2.203,-2.2046,-2.2049,-2.2048,-2.2034,-2.2056,-2.2064,-2.2128,-2.2173,-2.2085,-2.2089,-2.2296,-2.2301,-2.2305,-2.2375,0,0,0,0,0,0,-2.1937,-2.1951,-2.1983,-2.1997,-2.2009,-2.2096,-2.2035,-2.2033,-2.2054,-2.2048,-2.2065,-2.2065,-2.2054,-2.2121,-2.2132,-2.2177,-2.2093,-2.2292,-2.2298,-2.2304,-2.2369,-2.2382,-2.2393,0,0,0,0,0,-2.1933,-2.2001,-2.1985,-2.1996,-2.2049,-2.2099,-2.2105,-2.2092,-2.2058,-2.209,-2.2092,-2.2064,-2.2166,-2.2128,-2.214,-2.2187,-2.2289,-2.2296,-2.2303,-2.2364,-2.238,-2.2393,0,0,0,0,0,0,-2.1992,-2.2002,-2.1985,-2.2059,-2.2079,-2.209,-2.213,-2.2109,-2.2138,-2.2131,-2.2113,-2.2118,-2.2186,-2.2192,-2.215,-2.2271,-2.2222,-2.2232,-2.2264,-2.2279,-2.2291,-2.2287,-2.2096,0,0,0,0,0,-2.2013,-2.2053,-2.206,-2.2125,-2.2136,-2.2132,-2.2153,-2.2141,-2.216,-2.2168,-2.2175,-2.2195,-2.2231,-2.2255,-2.2289,-2.237,-2.2373,-2.2408,-2.242,-2.243,-2.2439,-2.2483,-2.2499,-2.2331,-2.2331,-2.233,0,0,-2.2059,-2.2069,-2.2095,-2.2137,-2.2151,-2.2193,-2.2139,-2.2185,-2.2216,-2.2175,-2.2235,-2.2242,-2.2262,-2.2335,-2.2368,-2.2343,-2.2486,-2.2439,-2.2447,-2.245,-2.2492,-2.2508,-2.2522,-2.2335,-2.2335,-2.2334,0,0,-2.2162,-2.2174,-2.223,-2.2245,-2.2266,-2.2263,-2.2277,-2.2292,-2.2294,-2.2355,-2.2325,-2.2362,-2.2425,-2.2441,-2.2458,-2.257,-2.2545,-2.2581,-2.2644,-2.2687,-2.27,-2.2712,-2.2752,-2.2767,-2.259,-2.259,-2.259,0,-2.2215,-2.2277,-2.2262,-2.231,-2.233,-2.2296,-2.2352,-2.2368,-2.2399,-2.2414,-2.2386,-2.2465,-2.2476,-2.2553,-2.2581,-2.2595,-2.261,-2.2579,-2.27,-2.2711,-2.2722,-2.276,-2.2775,-2.2594,-2.2594,-2.2593,-2.2593,0,-2.2342,-2.2385,-2.2428,-2.2459,-2.2484,-2.2537,-2.253,-2.2557,-2.2543,-2.2543,-2.2606,-2.2619,-2.2655,-2.2672,-2.2659,-2.2748,-2.2732,-2.2702,-2.2653,-2.2742,-2.2778,-2.2793,-2.26,-2.2599,-2.2597,-2.2596,0,0,-2.2483,-2.2506,-2.2522,-2.2536,-2.2558,-2.2591,-2.2643,-2.2678,-2.2702,-2.2725,-2.2768,-2.2823,-2.2796,-2.2815,-2.2804,-2.2842,-2.293,-2.2808,-2.2808,-2.283,-2.3029,-2.3052,-2.3069,-2.2914,-2.2917,-2.2919,-2.3028,0,-2.2587,-2.2676,-2.2664,-2.275,-2.279,-2.2758,-2.2803,-2.2822,-2.2824,-2.2858,-2.286,-2.2899,-2.2861,-2.2872,-2.2908,-2.2912,-2.297,-2.2904,-2.2954,-2.2956,-2.295,-2.3087,-2.3111,-2.3212,-2.3042,-2.3044,-2.3046,0,-2.272,-2.2748,-2.2838,-2.2854,-2.2871,-2.2911,-2.2944,-2.2977,-2.2998,-2.2996,-2.3019,-2.3001,-2.3053,-2.3003,-2.3074,-2.303,-2.305,-2.3055,-2.3059,-2.3063,-2.3006,-2.3095,-2.3244,-2.326,-2.3067,-2.3066,-2.3064,0,-2.2814,-2.2875,-2.2937,-2.295,-2.297,-2.3,-2.301,-2.3028,-2.305,-2.3079,-2.3093,-2.3127,-2.3146,-2.3173,-2.3165,-2.3129,-2.3239,-2.3188,-2.324,-2.324,-2.3264,-2.3263,-2.3419,-2.3277,-2.3277,-2.3277,-2.3277,0,-2.2931,-2.2988,-2.2979,-2.3017,-2.308,-2.3066,-2.3128,-2.3134,-2.3151,-2.319,-2.3165,-2.3202,-2.3189,-2.3226,-2.322,-2.3281,-2.329,-2.329,-2.3288,-2.3293,-2.3293,-2.3305,-2.3298,-2.3281,-2.328,-2.3279,-2.3279,0,-2.3047,-2.3044,-2.3109,-2.3124,-2.3129,-2.3174,-2.3187,-2.3223,-2.3223,-2.3273,-2.3284,-2.3284,-2.3326,-2.3321,-2.3368,-2.3364,-2.344,-2.3429,-2.3433,-2.3431,-2.3483,-2.3478,-2.3652,-2.3675,-2.3519,-2.3521,-2.3522,0,-2.3122,-2.3165,-2.3184,-2.3209,-2.3221,-2.326,-2.3283,-2.3272,-2.3297,-2.3325,-2.3358,-2.3398,-2.3429,-2.3498,-2.3502,-2.3538,-2.3528,-2.3587,-2.3533,-2.3537,-2.353,-2.3527,-2.3532,-2.3597,-2.3599,-2.3601,-2.3602,0,-2.3256,-2.3252,-2.3286,-2.3321,-2.3349,-2.3376,-2.34,-2.3421,-2.3412,-2.3442,-2.3485,-2.3509,-2.3558,-2.3598,-2.3632,-2.3642,-2.3621,-2.3619,-2.3633,-2.3638,-2.3638,-2.3639,-2.3462,-2.3615,-2.3613,-2.3612,-2.3612,-2.3611,-2.3353,-2.339,-2.341,-2.3449,-2.3466,-2.349,-2.3524,-2.353,-2.3565,-2.3604,-2.3595,-2.3644,-2.3664,-2.3708,-2.3722,-2.376,-2.3739,-2.3759,-2.3764,-2.3769,-2.3776,-2.3633,-2.3766,-2.3766,-2.3766,-2.3765,-2.3765,0,-2.3486,-2.3498,-2.3534,-2.3568,-2.36,-2.3577,-2.3603,-2.3631,-2.3674,-2.3695,-2.3727,-2.3776,-2.3815,-2.3824,-2.3861,-2.389,-2.3882,-2.39,-2.3898,-2.3901,-2.3792,-2.3777,-2.3907,-2.3907,-2.3907,-2.3907,-2.3907,-2.3907,-2.3559,-2.362,-2.3619,-2.3689,-2.37,-2.3748,-2.3764,-2.3786,-2.3803,-2.386,-2.3892,-2.3897,-2.3914,-2.3952,-2.3987,-2.3989,-2.4004,-2.4027,-2.4025,-2.3923,-2.3909,-2.3895,-2.388,-2.403,-2.403,-2.413,-2.4131,-2.4132]},{"header":{"parameterUnit":"m.s-1","parameterCategory":1,"la1":30.2991,"la2":30.254,"lo1":-89.0895,"lo2":-89.0444,"dy":0.0017,"dx":0.0017,"nx":28,"ny":28,"refTime":"2024-02-02T09:00:00:Z","depth":0,"parameterNumber":3,"parameterNumberName":"V-component_of_WINDS"},"data":[0,0,0,0,0,0,0,0,0,0,0,0,0,0,0,0,0,0,0,0,0,0,0,0,0,0,0,0,0,0,0,0,0,0,0,0,0,0,0,0,0,0,0,0,0,0,0,0,0,0,0,0,0,0,0,0,0,0,0.1541,0.1542,0,0.1624,0.1625,0.1626,0.1661,0.1661,0.1661,0.1661,0.1747,0.175,0.1752,0,0,0,0,0,0,0,0,0,0,0,0,0,0.1413,0.1415,0.1541,0.1542,0.1543,0.1624,0.1625,0.1626,0.1661,0.1661,0.1661,0.1661,0.1746,0.1749,0.1752,0,0,0,0,0,0,0,0,0,0,0,0,0,0.148,0.1416,0.154,0.157,0.1573,0.1624,0.1625,0.1627,0.1661,0.1661,0.1661,0.1661,0.1745,0.1749,0.1753,0.178,0,0,0.1764,0.1765,0,0,0,0,0,0,0,0,0.1476,0.1484,0.1565,0.1568,0.1572,0.1632,0.1612,0.1678,0.1661,0.1628,0.1661,0.1661,0.1709,0.1716,0.1732,0.1784,0.1788,0.1764,0.1766,0.1768,0.1769,0,0,0,0,0,0,0,0.1471,0.1481,0.1574,0.1566,0.157,0.158,0.1589,0.1625,0.1669,0.1631,0.1634,0.1643,0.1711,0.1728,0.1734,0.1789,0.1764,0.1767,0.177,0.1771,0.187,0.187,0,0,0,0,0,0,0.1462,0.1477,0.1571,0.1576,0.1522,0.1582,0.1592,0.1613,0.1669,0.1677,0.1643,0.1644,0.1722,0.173,0.1737,0.1775,0.1768,0.1771,0.1773,0.1869,0.187,0.187,0,0,0,0,0,0,0.1459,0.147,0.1568,0.1527,0.1541,0.1585,0.1607,0.1615,0.1632,0.1678,0.1686,0.1653,0.1722,0.1732,0.177,0.1778,0.1773,0.1776,0.1869,0.187,0.187,0.1848,0,0,0,0,0,0,0.1455,0.1468,0.1479,0.1527,0.1543,0.1598,0.1608,0.1617,0.1638,0.1641,0.1689,0.1697,0.1723,0.1764,0.1773,0.1783,0.1779,0.1868,0.1869,0.187,0.1848,0.1848,0.1848,0,0,0,0,0,0.145,0.1469,0.1479,0.149,0.1556,0.1598,0.1607,0.1637,0.1639,0.165,0.168,0.1695,0.1775,0.1767,0.1778,0.1789,0.1868,0.1869,0.187,0.1848,0.1848,0.1848,0,0,0,0,0,0,0.142,0.1476,0.1488,0.1523,0.1555,0.1604,0.1619,0.1635,0.1668,0.1669,0.1705,0.1715,0.175,0.1773,0.1763,0.182,0.1823,0.1826,0.1803,0.1803,0.1803,0.1797,0.1782,0,0,0,0,0,0.1418,0.1447,0.1494,0.152,0.1536,0.1575,0.1594,0.1614,0.165,0.1664,0.1696,0.173,0.1763,0.1784,0.1817,0.1852,0.1864,0.1865,0.1864,0.1864,0.1866,0.1888,0.1889,0.1874,0.1874,0.1874,0,0,0.1413,0.1447,0.1463,0.1515,0.1543,0.1573,0.1586,0.1617,0.164,0.1668,0.1706,0.1731,0.1771,0.1808,0.1825,0.1828,0.1873,0.1865,0.1864,0.1867,0.1889,0.1891,0.1892,0.1874,0.1874,0.1874,0,0,0.1419,0.1447,0.1473,0.1501,0.1543,0.1569,0.1575,0.1621,0.1639,0.1677,0.17,0.1728,0.1784,0.1812,0.1834,0.1853,0.1868,0.1862,0.1861,0.1881,0.1882,0.1884,0.1892,0.1894,0.1864,0.1864,0.1864,0,0.1408,0.1453,0.1484,0.1514,0.1537,0.1565,0.1592,0.1617,0.1668,0.1683,0.1686,0.1758,0.1787,0.1831,0.1836,0.1852,0.1861,0.1857,0.188,0.1881,0.1883,0.1891,0.1894,0.1863,0.1864,0.1864,0.1864,0,0.1438,0.1469,0.1485,0.1533,0.1558,0.1586,0.1622,0.1644,0.1662,0.1688,0.1727,0.1763,0.1804,0.1816,0.1834,0.1863,0.1864,0.1873,0.1877,0.1883,0.1891,0.1894,0.1862,0.1862,0.1863,0.1863,0,0,0.1427,0.1493,0.1499,0.1522,0.1571,0.1596,0.1626,0.1666,0.1684,0.1719,0.1745,0.1793,0.1801,0.1826,0.1848,0.1865,0.188,0.1872,0.1874,0.1873,0.1916,0.191,0.1913,0.189,0.1891,0.1891,0.1913,0,0.1441,0.1496,0.1525,0.1568,0.1598,0.1625,0.1651,0.1685,0.171,0.1739,0.1767,0.1801,0.1809,0.1824,0.1843,0.1874,0.1889,0.1872,0.1916,0.1918,0.1906,0.1917,0.191,0.1928,0.1916,0.1917,0.1917,0,0.1464,0.1498,0.1544,0.1591,0.1604,0.1627,0.1668,0.1695,0.1734,0.1752,0.178,0.1801,0.1835,0.1836,0.1884,0.1872,0.1892,0.191,0.1911,0.1917,0.1918,0.1924,0.1935,0.1938,0.1922,0.1922,0.1921,0,0.1453,0.1511,0.1546,0.1564,0.1619,0.1635,0.1659,0.1698,0.1721,0.1756,0.1772,0.181,0.1832,0.1862,0.1893,0.1891,0.1939,0.1942,0.1955,0.1954,0.1964,0.1963,0.1979,0.1975,0.1975,0.1975,0.1975,0,0.1466,0.1493,0.1542,0.1563,0.1595,0.1629,0.1659,0.1685,0.172,0.1748,0.1774,0.1799,0.1839,0.187,0.1895,0.1932,0.1941,0.1957,0.1963,0.1955,0.1953,0.1969,0.1969,0.1975,0.1975,0.1975,0.1975,0,0.1459,0.1493,0.1533,0.1582,0.1595,0.1616,0.1659,0.1682,0.1708,0.1743,0.1754,0.1796,0.1834,0.1868,0.1919,0.1936,0.1973,0.1981,0.196,0.1964,0.1975,0.1974,0.2002,0.2008,0.1999,0.1999,0.1999,0,0.1465,0.1487,0.1538,0.1559,0.1582,0.1615,0.1639,0.1673,0.1697,0.1744,0.1761,0.1801,0.1835,0.1895,0.193,0.1969,0.1979,0.1986,0.1985,0.1976,0.198,0.1979,0.1982,0.1986,0.1986,0.1986,0.1986,0,0.1473,0.1489,0.1522,0.1561,0.1589,0.1622,0.1655,0.1671,0.1712,0.1738,0.1777,0.1803,0.1855,0.1895,0.1938,0.1964,0.1982,0.1986,0.1991,0.1983,0.1971,0.1979,0.196,0.1985,0.1985,0.1985,0.1985,0.1985,0.1473,0.1494,0.1534,0.1571,0.16,0.1631,0.1655,0.1685,0.1718,0.1764,0.1782,0.1822,0.1862,0.1923,0.1948,0.1981,0.1984,0.1991,0.1993,0.1995,0.1994,0.1965,0.1988,0.1989,0.1989,0.1989,0.1989,0,0.1483,0.151,0.1544,0.159,0.1619,0.1634,0.1672,0.1696,0.1731,0.1766,0.18,0.1846,0.1885,0.1924,0.1965,0.1984,0.1994,0.1994,0.1993,0.1999,0.1988,0.198,0.1985,0.1985,0.1985,0.1985,0.1985,0.1985,0.1492,0.1528,0.1549,0.1601,0.1629,0.1668,0.1689,0.1719,0.1747,0.1798,0.183,0.1855,0.1893,0.1938,0.1975,0.1985,0.2,0.1998,0.2011,0.2,0.2,0.1999,0.1992,0.2001,0.2001,0.202,0.202,0.202]}]]